| time (UTC) | temp C | wind direction | speed KPH | gust KPH | rain 1hr cm | rain 24hr cm | rain mn cm | humidity % | barometer mb |
| 20260507034548 | 5 | 350 | 3.2 | 6.4 | 0.00 | 0.00 | 0.00 | 91 | 1012.4 |
| 20260507033048 | 5 | 355 | 1.6 | 8.0 | 0.00 | 0.00 | 0.00 | 91 | 1012.3 |
| 20260507031545 | 5 | 339 | 3.2 | 8.0 | 0.00 | 0.00 | 0.00 | 91 | 1012.3 |
| 20260507030045 | 5 | 349 | 3.2 | 6.4 | 0.00 | 0.00 | 0.00 | 91 | 1012.3 |
| 20260507024547 | 5 | 351 | 3.2 | 6.4 | 0.00 | 0.00 | 0.00 | 91 | 1012.2 |
| 20260507023041 | 5 | 355 | 1.6 | 4.8 | 0.00 | 0.00 | 0.00 | 90 | 1012.3 |
| 20260507021553 | 5 | 355 | 3.2 | 6.4 | 0.00 | 0.00 | 0.00 | 91 | 1012.2 |
| 20260507020038 | 5 | 355 | 1.6 | 9.7 | 0.00 | 0.00 | 0.00 | 90 | 1012.0 |
| 20260507014536 | 6 | 345 | 1.6 | 6.4 | 0.00 | 0.00 | 0.00 | 90 | 1011.9 |
| 20260507013037 | 6 | 318 | 3.2 | 8.0 | 0.00 | 0.00 | 0.00 | 90 | 1011.9 |
| 20260507011537 | 6 | 330 | 3.2 | 8.0 | 0.00 | 0.00 | 0.00 | 89 | 1012.0 |
| 20260507010041 | 6 | 348 | 3.2 | 6.4 | 0.00 | 0.00 | 0.00 | 89 | 1011.8 |
| 20260507004531 | 6 | 334 | 4.8 | 9.7 | 0.00 | 0.00 | 0.00 | 89 | 1011.8 |
| 20260507003031 | 6 | 348 | 1.6 | 4.8 | 0.00 | 0.00 | 0.00 | 89 | 1011.8 |
| 20260507001533 | 6 | 348 | 3.2 | 6.4 | 0.00 | 0.00 | 0.00 | 89 | 1011.8 |
| 20260507000033 | 6 | 346 | 3.2 | 8.0 | 0.00 | 0.00 | 0.00 | 89 | 1011.9 |
| 20260506234528 | 6 | 336 | 3.2 | 6.4 | 0.00 | 0.00 | 0.00 | 89 | 1011.9 |
| 20260506233027 | 6 | 339 | 3.2 | 6.4 | 0.00 | 0.00 | 0.00 | 89 | 1011.9 |
| 20260506231527 | 6 | 348 | 3.2 | 8.0 | 0.00 | 0.00 | 0.00 | 89 | 1011.9 |
| 20260506230024 | 7 | 355 | 3.2 | 4.8 | 0.00 | 0.00 | 0.00 | 88 | 1012.0 |
| 20260506224521 | 7 | 355 | 1.6 | 4.8 | 0.00 | 0.00 | 0.00 | 88 | 1011.8 |
| 20260506223019 | 7 | 355 | 1.6 | 4.8 | 0.00 | 0.00 | 0.00 | 87 | 1011.8 |
| 20260506221516 | 7 | 355 | 1.6 | 6.4 | 0.00 | 0.00 | 0.00 | 86 | 1011.7 |
| 20260506220022 | 8 | 5 | 1.6 | 4.8 | 0.00 | 0.00 | 0.00 | 86 | 1011.7 |
| 20260506214511 | 8 | 5 | 1.6 | 6.4 | 0.00 | 0.00 | 0.00 | 84 | 1011.6 |
| 20260506213009 | 8 | 18 | 6.4 | 12.9 | 0.00 | 0.00 | 0.00 | 83 | 1011.5 |
| 20260506211505 | 8 | 355 | 6.4 | 16.1 | 0.00 | 0.00 | 0.00 | 82 | 1011.5 |
| 20260506210003 | 9 | 5 | 8.0 | 16.1 | 0.00 | 0.00 | 0.00 | 81 | 1011.2 |
| 20260506204503 | 9 | 20 | 8.0 | 14.5 | 0.00 | 0.00 | 0.00 | 80 | 1011.2 |
| 20260506203003 | 10 | 17 | 4.8 | 12.9 | 0.00 | 0.00 | 0.00 | 78 | 1011.1 |
| 20260506201600 | 10 | 19 | 8.0 | 17.7 | 0.00 | 0.00 | 0.00 | 77 | 1011.0 |
| 20260506200111 | 10 | 23 | 8.0 | 14.5 | 0.00 | 0.00 | 0.00 | 75 | 1010.7 |
| 20260506194616 | 10 | 38 | 8.0 | 20.9 | 0.00 | 0.00 | 0.00 | 73 | 1010.6 |
| 20260506193055 | 11 | 28 | 9.7 | 19.3 | 0.00 | 0.00 | 0.00 | 73 | 1010.4 |
| 20260506191552 | 11 | 17 | 8.0 | 16.1 | 0.00 | 0.00 | 0.00 | 71 | 1010.1 |
| 20260506190050 | 11 | 18 | 11.3 | 22.5 | 0.00 | 0.00 | 0.00 | 70 | 1009.9 |
| 20260506184549 | 11 | 9 | 8.0 | 19.3 | 0.00 | 0.00 | 0.00 | 69 | 1009.7 |
| 20260506183101 | 11 | 350 | 6.4 | 16.1 | 0.00 | 0.00 | 0.00 | 69 | 1009.6 |
| 20260506181553 | 11 | 20 | 12.9 | 20.9 | 0.00 | 0.00 | 0.00 | 68 | 1009.4 |
| 20260506180045 | 11 | 32 | 14.5 | 22.5 | 0.00 | 0.00 | 0.00 | 67 | 1009.3 |
| 20260506174543 | 11 | 25 | 11.3 | 24.1 | 0.00 | 0.00 | 0.00 | 67 | 1009.2 |
| 20260506173052 | 12 | 349 | 12.9 | 25.7 | 0.00 | 0.00 | 0.00 | 68 | 1009.0 |
| 20260506171546 | 12 | 21 | 11.3 | 29.0 | 0.00 | 0.00 | 0.00 | 69 | 1008.8 |
| 20260506170046 | 12 | 355 | 12.9 | 25.7 | 0.00 | 0.00 | 0.00 | 69 | 1008.8 |
| 20260506164549 | 13 | 48 | 11.3 | 27.4 | 0.00 | 0.00 | 0.00 | 64 | 1008.7 |
| 20260506163042 | 13 | 346 | 12.9 | 25.7 | 0.00 | 0.00 | 0.00 | 64 | 1008.5 |
| 20260506161546 | 13 | 30 | 8.0 | 20.9 | 0.00 | 0.00 | 0.00 | 67 | 1008.5 |
| 20260506160045 | 12 | 28 | 9.7 | 20.9 | 0.00 | 0.00 | 0.00 | 68 | 1008.5 |
| 20260506154539 | 12 | 44 | 4.8 | 9.7 | 0.00 | 0.00 | 0.00 | 67 | 1008.5 |
| 20260506153038 | 12 | 70 | 8.0 | 16.1 | 0.00 | 0.00 | 0.00 | 64 | 1008.5 |
| 20260506151558 | 12 | 40 | 9.7 | 22.5 | 0.00 | 0.00 | 0.00 | 63 | 1008.5 |
| 20260506150038 | 12 | 120 | 8.0 | 17.7 | 0.00 | 0.00 | 0.00 | 65 | 1008.5 |
| 20260506144537 | 12 | 65 | 8.0 | 29.0 | 0.00 | 0.00 | 0.00 | 63 | 1008.4 |
| 20260506143045 | 12 | 69 | 12.9 | 29.0 | 0.00 | 0.00 | 0.00 | 62 | 1008.5 |
| 20260506141536 | 12 | 36 | 11.3 | 29.0 | 0.00 | 0.00 | 0.00 | 58 | 1008.5 |
| 20260506140038 | 13 | 16 | 12.9 | 25.7 | 0.00 | 0.00 | 0.00 | 54 | 1008.4 |
| 20260506134536 | 13 | 348 | 12.9 | 29.0 | 0.00 | 0.00 | 0.00 | 53 | 1008.3 |
| 20260506133039 | 13 | 67 | 14.5 | 30.6 | 0.00 | 0.00 | 0.00 | 50 | 1008.4 |
| 20260506131536 | 13 | 29 | 12.9 | 29.0 | 0.00 | 0.00 | 0.00 | 48 | 1008.2 |
| 20260506130034 | 14 | 91 | 17.7 | 30.6 | 0.00 | 0.00 | 0.00 | 44 | 1008.2 |
| 20260506124533 | 14 | 51 | 12.9 | 29.0 | 0.00 | 0.00 | 0.00 | 46 | 1008.1 |
| 20260506123031 | 13 | 52 | 14.5 | 30.6 | 0.00 | 0.00 | 0.00 | 46 | 1008.0 |
| 20260506121529 | 13 | 57 | 14.5 | 27.4 | 0.00 | 0.00 | 0.00 | 48 | 1008.0 |
| 20260506120031 | 13 | 16 | 14.5 | 24.1 | 0.00 | 0.00 | 0.00 | 47 | 1007.9 |
| 20260506114538 | 13 | 62 | 11.3 | 24.1 | 0.00 | 0.00 | 0.00 | 51 | 1007.9 |
| 20260506113026 | 13 | 59 | 12.9 | 25.7 | 0.00 | 0.00 | 0.00 | 52 | 1007.9 |
| 20260506111526 | 13 | 57 | 8.0 | 20.9 | 0.00 | 0.00 | 0.00 | 53 | 1007.9 |
| 20260506110029 | 13 | 104 | 9.7 | 25.7 | 0.00 | 0.00 | 0.00 | 53 | 1007.9 |
| 20260506104527 | 13 | 24 | 16.1 | 27.4 | 0.00 | 0.00 | 0.00 | 51 | 1008.0 |
| 20260506103025 | 13 | 55 | 8.0 | 22.5 | 0.00 | 0.00 | 0.00 | 53 | 1007.8 |
| 20260506101542 | 13 | 13 | 12.9 | 32.2 | 0.00 | 0.00 | 0.00 | 53 | 1007.8 |
| 20260506100019 | 12 | 32 | 14.5 | 33.8 | 0.00 | 0.00 | 0.00 | 52 | 1007.7 |
| 20260506094518 | 12 | 40 | 9.7 | 22.5 | 0.00 | 0.00 | 0.00 | 58 | 1007.6 |
| 20260506093015 | 12 | 80 | 12.9 | 25.7 | 0.00 | 0.00 | 0.00 | 62 | 1007.5 |
| 20260506091519 | 12 | 30 | 12.9 | 20.9 | 0.00 | 0.00 | 0.00 | 68 | 1007.6 |
| 20260506090011 | 12 | 5 | 11.3 | 24.1 | 0.00 | 0.00 | 0.00 | 67 | 1007.6 |
| 20260506084517 | 12 | 15 | 12.9 | 25.7 | 0.00 | 0.00 | 0.00 | 68 | 1007.4 |
| 20260506083008 | 11 | 23 | 12.9 | 22.5 | 0.00 | 0.00 | 0.00 | 74 | 1007.4 |
| 20260506081605 | 11 | 26 | 8.0 | 24.1 | 0.00 | 0.00 | 0.00 | 77 | 1007.3 |
| 20260506061516 | 9 | 42 | 12.9 | 22.5 | 0.00 | 0.00 | 0.00 | 89 | 1007.0 |
| 20260506044602 | 9 | 342 | 12.9 | 20.9 | 0.00 | 0.00 | 0.00 | 88 | 1007.0 |
| 20260506043056 | 9 | 26 | 9.7 | 17.7 | 0.00 | 0.00 | 0.00 | 88 | 1007.0 |
| 20260506041605 | 9 | 360 | 6.4 | 17.7 | 0.00 | 0.00 | 0.00 | 88 | 1006.9 |
| 20260506040054 | 9 | 355 | 8.0 | 17.7 | 0.00 | 0.00 | 0.00 | 87 | 1006.9 |